This demonstration page uses our WeatherBlox Daily Observations layout. Learn more.

Left ArrowRight Arrow

Hourly Observations for January 24, 2017

Temp ( °F °C ) Dew Point ( °F °C ) Humidity (%) Winds ( mph kmh ) Pressure ( in mb ) Visibility ( mi km ) Precip ( " mm )
12:52 am 00:52 Clear 33 0.6 29 -1.7 85 85 SE 8 13 29.82 1010 10 16 0.00 0.00
1:52 am 01:52 Clear 36 2.2 31 -0.6 82 82 SE 10 17 29.80 1009 10 16 0.00 0.00
2:52 am 02:52 Clear 35 1.7 31 -0.6 85 85 SE 10 17 29.80 1009 10 16 0.00 0.00
3:52 am 03:52 Clear 37 2.8 32 0 82 82 SE 12 19 29.78 1009 10 16 0.00 0.00
4:52 am 04:52 Clear 38 3.3 32 0 79 79 SE 14 22 29.77 1008 10 16 0.00 0.00
5:52 am 05:52 Clear 39 3.9 32 0 76 76 SE 17 28 29.75 1007 10 16 0.00 0.00
6:52 am 06:52 Clear 40 4.4 32 0 73 73 SE 16 26 29.73 1007 10 16 0.00 0.00
7:52 am 07:52 Sunny 40 4.4 33 0.6 77 77 SSE 21 33 29.75 1007 10 16 0.00 0.00
8:52 am 08:52 Sunny 42 5.6 34 1.1 73 73 SSE 26 43 29.72 1006 10 16 0.00 0.00
9:52 am 09:52 Sunny 44 6.7 35 1.7 71 71 SE 25 41 29.70 1006 10 16 0.00 0.00
10:52 am 10:52 Sunny 49 9.4 36 2.2 61 61 SSE 24 39 29.69 1006 10 16 0.00 0.00
11:52 am 11:52 Mostly Cloudy 52 11.1 36 2.2 55 55 SSE 26 43 29.65 1004 10 16 0.00 0.00
12:52 pm 12:52 Sunny 58 14.4 38 3.3 48 48 SSE 24 39 29.58 1002 10 16 0.00 0.00
1:52 pm 13:52 Sunny 62 16.7 39 3.9 43 43 SSE 24 39 29.52 1000 10 16 0.00 0.00
2:52 pm 14:52 Sunny 65 18.3 39 3.9 39 39 SSE 21 33 29.51 999 10 16 0.00 0.00
3:52 pm 15:52 Sunny 69 20.6 36 2.2 30 30 S 24 39 29.48 998 10 16 0.00 0.00
4:52 pm 16:52 Sunny 67 19.4 36 2.2 32 32 S 23 37 29.49 999 10 16 0.00 0.00
5:52 pm 17:52 Clear 62 16.7 38 3.3 41 41 S 16 26 29.51 999 10 16 0.00 0.00
6:52 pm 18:52 Clear 59 15 39 3.9 48 48 SSE 14 22 29.55 1001 10 16 0.00 0.00
7:52 pm 19:52 Clear 57 13.9 40 4.4 53 53 SSE 15 24 29.55 1001 10 16 0.00 0.00
8:52 pm 20:52 Clear 55 12.8 40 4.4 57 57 SSE 18 30 29.54 1000 10 16 0.00 0.00
9:52 pm 21:52 Clear 54 12.2 41 5 62 62 SSE 13 20 29.55 1001 10 16 0.00 0.00
10:52 pm 22:52 Mostly Clear 53 11.7 41 5 64 64 SSE 10 17 29.56 1001 10 16 0.00 0.00
11:52 pm 23:52 Clear 49 9.4 41 5 74 74 S 8 13 29.57 1001 10 16 0.00 0.00

Powered by AerisWeather